Location: Crescent
(42.8242°N, 73.7329°W)
Time: 00:01:39
(UTC+00:00)

Vanguard 2 Rocket - Pass Details

Date: 20 February 2026
Orbit: 553 x 3286 km, 32.9° (Epoch: 9 March)

Event Time Altitude Azimuth Distance (km) Brightness Sun altitude
Rises 19:56:28 0° 267° (W) 7,080 12.2 24.2°
Reaches altitude 10° 20:01:45 10° 263° (W) 5,825 12.0 23.5°
Maximum altitude 20:17:32 51° 195° (SSW) 2,538 10.1 21.3°
Drops below altitude 10° 20:27:00 10° 123° (ESE) 3,610 9.8 19.9°
Sets 20:29:30 0° 117° (ESE) 4,295 10.1 19.6°
